Regional Weather Roundup
Issued by NWS Upton, NY

Current Version | Previous Version | Text Only | Print | Product List | Glossary On
Versions: 1 2 3 4 5 6 7 8 9 10 11 12 13 14 15 16 17 18 19 20 21 22 23 24 25 26 27
000
ASUS41 KOKX 181308
RWROKX

REGIONAL WEATHER ROUNDUP
NATIONAL WEATHER SERVICE NEW YORK NY
900 AM EDT FRI AUG 18 2017

NOTE: "FAIR" INDICATES FEW OR NO CLOUDS BELOW 12,000 FEET WITH NO
SIGNIFICANT WEATHER AND/OR OBSTRUCTIONS TO VISIBILITY.

NYZ071-072-176-178-NJZ106-104-181400-
NEW YORK CITY METRO AREA

CITY           SKY/WX    TMP DP  RH WIND       PRES   REMARKS
Central Park   HVY RAIN  73  72  96 SE6       29.90F VSB 1/4
Bronx Bot Gard   N/A     72  70  94 CALM      29.90F
LaGuardia APRT TSTM      74  74 100 CALM      29.88S VSB 3/4
Kennedy INTL   CLOUDY    75  75 100 S16G23    29.88F
Breezy Point     N/A     73 N/A N/A S13         N/A
Newark/Liberty LGT RAIN  74  72  93 CALM      29.87F FOG
Teterboro      LGT RAIN  75  72  90 CALM      29.87S
$$

NYZ177-179-078>081-181400-
LONG ISLAND NEW YORK

CITY           SKY/WX    TMP DP  RH WIND       PRES   REMARKS
Jones Beach      N/A     75 N/A N/A S13G18      N/A
Matinecock PT    N/A     73 N/A N/A N14         N/A
Farmingdale    CLOUDY    76  74  93 S15G23    29.88F
MacArthur/ISP  CLOUDY    76  74  93 S10       29.90S
Shirley        CLOUDY    77  74  90 S13G20    29.92S
Mt Sinai Harb    N/A    N/A N/A N/A S12G18      N/A
Westhampton    CLOUDY    75  71  87 S8        29.94S
East Hampton   CLOUDY    74  71  91 S8G16     29.93F
Montauk          N/A     75  72  90 S8        29.95F
$$

NYZ052-065-067-181400-
HUDSON VALLEY

CITY           SKY/WX    TMP DP  RH WIND       PRES   REMARKS
White Plains   CLOUDY    73  72  96 SE6       29.89F FOG
Larchmont Harb   N/A     73 N/A N/A NE7         N/A
Croton On Huds   N/A     73 N/A N/A S6G12       N/A
Newburgh       LGT RAIN  73  72  94 CALM      29.90S
Montgomery     CLOUDY    74  71  91 S5        29.87F
Poughkeepsie   CLOUDY    74  70  87 S5        29.86F
Albany         CLOUDY    73  69  87 S9G21     29.83S
$$

NJZ001-105-106-008-010-013-015-019>022-104-181400-
NEW JERSEY

CITY           SKY/WX    TMP DP  RH WIND       PRES   REMARKS
Newark/Liberty LGT RAIN  74  72  93 CALM      29.87F FOG
Teterboro      LGT RAIN  75  72  90 CALM      29.87S
Caldwell       LGT RAIN  73  73 100 CALM      29.88F FOG
Somerville     CLOUDY    73  72  96 CALM      29.86F FOG
Linden         RAIN      74  71  91 CALM      29.88S
Perth Amboy      N/A     73 N/A N/A W5          N/A
Sussex         CLOUDY    73  72  96 CALM      29.88F
Andover          N/A     72  70  93 VRB3      29.89S
Trenton        LGT RAIN  75  73  93 S5        29.88S FOG
Millville      CLOUDY    80  78  94 SW6       29.89S
Atlantic City  CLOUDY    80  76  87 S12       29.89S
Wrightstown    LGT RAIN  75  74  95 S7        29.85S
Toms River     TSTM      75  75 100 SW13      29.91R FOG
Belmar         LGT RAIN  78  74  87 S9        29.90S
$$

PAZ047>061-062-071-181400-
EASTERN PENNSYLVANIA

CITY           SKY/WX    TMP DP  RH WIND       PRES   REMARKS
Philadelphia   CLOUDY    77  75  93 S7        29.87S
Allentown      CLOUDY    76  71  85 CALM      29.87F
Scranton       CLOUDY    76  73  91 CALM      29.87S
$$

CTZ002-004>006-009-010-012-RIZ004-006-007-MAZ004-011-015-181400-
SOUTHERN NEW ENGLAND
 IN CT

CITY           SKY/WX    TMP DP  RH WIND       PRES   REMARKS
Bradley INTL   LGT RAIN  74  71  91 S10       29.89F
Hartford       PTSUNNY   76  71  85 S9        29.89F
Danbury        CLOUDY    74  71  91 S7        29.91F
Wtrbury/Oxford CLOUDY    72  70  93 S12       29.93S
Norwalk Harbor   N/A     73 N/A N/A SW3         N/A
Bridgeport     RAIN      74  71  91 S8        29.90F FOG
Meriden        CLOUDY    75  70  84 SE9       29.91S
New Haven      CLOUDY    75  71  87 S9        29.92S
Chester        NOT AVBL
Groton         CLOUDY    73  71  93 SE9       29.93S FOG
Wilimantic     CLOUDY    73  71  93 S8        29.92F

 IN RI

CITY           SKY/WX    TMP DP  RH WIND       PRES   REMARKS
Providence     CLOUDY    73  71  93 S10       29.95F
Block Island   CLOUDY    73  71  93 S12       29.95F FOG
Westerly       CLOUDY    73  72  96 SE8       29.95F FOG
 IN MA

CITY           SKY/WX    TMP DP  RH WIND       PRES   REMARKS
Boston         LGT RAIN  70  65  84 S9        29.95F
Worcester      CLOUDY    68  64  87 S14       29.94F
Westfield      LGT RAIN  69  68  96 S3        29.89F
Provincetown   MOSUNNY   71  67  87 S10G16    29.99S
Nantucket      PTSUNNY   68  68 100 S12       30.00S
$$

ANZ330-335-338-340-345-350-353-355-181400-
COASTAL MARINE OBSERVATIONS


STATION/POSITION TIME  SKY/WX   TEMP    WIND        PRES    VSBY  WAVE
                                AIR SEA DIR/SP/G                  HT/PER
                 (UTC)          (F)     (DEG/KT/KT) (MB)    (MI)  (FT/S)
NY HARB ENTRANCE 1150            76 75  180/ 16/ 19 1011.3          3/ 4
GREAT SOUTH BAY  1230            75 78  180/ 12/ 16   N/A
23 SSW MONTAUK P 1150            73 71              1014.3          2/ 7
15 E BARNEGAT LI 1230               76                N/A           4/ 5
HUDSON CANYON    1150            76 75  170/ 12/ 14 1013.6          2/ 8
KINGS POINT      1230            75 74  220/  9/ 13 1011.7
EXECUTION ROCKS  NOT AVBL
WESTERN LI SOUND NOT AVBL
CENTRAL LI SOUND NOT AVBL
EASTERN LI SOUND NOT AVBL
ROBBINS REEF     1224                   310/  8/ 11 1012.3
$$


>>>>>>>>>>>>>>>>>>>>>>>>>>>> KEY <<<<<<<<<<<<<<<<<<<<<<<<<<<
>                                                          <
>     SKY/WX - Sky Condition/Present Weather               <
>     TMP    - Temperature in Fahrenheit                   <
>     DP     - Dew Point in Fahrenheit                     <
>     RH     - Relative Humidity in Percent                <
>     WIND   - Direction (from) and Speed in MPH           <
>     PRES   - Mean Sea Level Pressure (inches of Hg)      <
>     WCI    - Wind Chill Index                            <
>     VSB    - VISIBILITY IN MILES                         <
>     HX     - HEAT INDEX                                  <
>     TC     - TEMPERATURE IN CELSIUS                      <
>     VRB    - VARIABLE WIND DIRECTION                     <
>                                                          <
>>>>>>>>>>>>>>>>>>>>>>>>>>>> KEY <<<<<<<<<<<<<<<<<<<<<<<<<<<




USA.gov is the U.S. government's official web portal to all federal, state and local government web resources and services.